• In Belarus
  • List of Countries
  • For 7 days
  • Water Temperature
  • Satellite Maps
  • Weather Map
  • Weather Widgets
  • user-avatar
    Login

    Hourly Weather Caño Grande

    Today, 18 December, Monday

    Time Temperature Precipitation Wind Pressure Humidity
    00:00 +19°C° 0 mm 2 mps 679 mmHg 19%
    01:00 +19°C° 0 mm 2 mps 679 mmHg 17%
    02:00 +19°C° 0 mm 2 mps 679 mmHg 22%
    03:00 +19°C° 0 mm 2 mps 679 mmHg 27%
    04:00 +19°C° 0 mm 2 mps 679 mmHg 32%
    05:00 +20°C° 0 mm 1 mps 679 mmHg 36%
    06:00 +21°C° 0 mm 1 mps 680 mmHg 39%
    07:00 +22°C° 0 mm 1 mps 680 mmHg 42%
    08:00 +24°C° 0 mm 2 mps 681 mmHg 40%
    09:00 +26°C° 0 mm 2 mps 681 mmHg 39%
    10:00 +29°C° 0 mm 3 mps 682 mmHg 37%
    11:00 +29°C° 0 mm 3 mps 681 mmHg 36%
    12:00 +30°C° 0 mm 3 mps 681 mmHg 35%
    13:00 +31°C° 0 mm 3 mps 681 mmHg 34%
    14:00 +30°C° 0 mm 2 mps 680 mmHg 35%
    15:00 +30°C° 0 mm 2 mps 679 mmHg 36%
    16:00 +29°C° 0 mm 2 mps 679 mmHg 37%
    17:00 +27°C° 0 mm 2 mps 678 mmHg 41%
    18:00 +24°C° 0 mm 2 mps 678 mmHg 46%
    19:00 +21°C° 0 mm 2 mps 678 mmHg 50%
    20:00 +20°C° 0 mm 2 mps 678 mmHg 46%
    21:00 +20°C° 0 mm 2 mps 679 mmHg 41%
    22:00 +20°C° 0 mm 2 mps 679 mmHg 37%
    23:00 +20°C° 0 mm 2 mps 679 mmHg 35%

    Tomorrow, 19 December, Tuesday

    Time Temperature Precipitation Wind Pressure Humidity
    00:00 +20°C° 0 mm 2 mps 679 mmHg 33%
    01:00 +19°C° 0 mm 2 mps 679 mmHg 31%
    02:00 +19°C° 0 mm 2 mps 679 mmHg 33%
    03:00 +19°C° 0 mm 2 mps 679 mmHg 35%
    04:00 +19°C° 0 mm 2 mps 679 mmHg 38%
    05:00 +20°C° 0 mm 1 mps 679 mmHg 40%
    06:00 +21°C° 0 mm 1 mps 680 mmHg 42%
    07:00 +22°C° 0 mm 1 mps 680 mmHg 45%
    08:00 +24°C° 0 mm 2 mps 681 mmHg 40%
    09:00 +27°C° 0 mm 2 mps 682 mmHg 36%
    10:00 +29°C° 0 mm 2 mps 682 mmHg 32%
    11:00 +30°C° 0 mm 2 mps 682 mmHg 30%
    12:00 +31°C° 0 mm 3 mps 681 mmHg 29%
    13:00 +31°C° 0 mm 3 mps 680 mmHg 27%
    14:00 +31°C° 0 mm 2 mps 680 mmHg 29%
    15:00 +30°C° 0 mm 2 mps 679 mmHg 31%
    16:00 +29°C° 0 mm 2 mps 678 mmHg 34%
    17:00 +27°C° 0 mm 2 mps 678 mmHg 38%
    18:00 +25°C° 0 mm 2 mps 678 mmHg 42%
    19:00 +21°C° 0 mm 2 mps 678 mmHg 46%
    20:00 +21°C° 0 mm 2 mps 678 mmHg 44%
    21:00 +21°C° 0 mm 2 mps 678 mmHg 42%
    22:00 +20°C° 0 mm 2 mps 679 mmHg 40%
    23:00 +20°C° 0 mm 2 mps 679 mmHg 40%

    Day after tomorrow, 20 December, Wednesday

    Time Temperature Precipitation Wind Pressure Humidity
    00:00 +20°C° 0 mm 2 mps 679 mmHg 40%
    01:00 +20°C° 0 mm 2 mps 678 mmHg 39%
    02:00 +21°C° 0 mm 1 mps 678 mmHg 41%
    03:00 +21°C° 0 mm 1 mps 678 mmHg 43%
    04:00 +20°C° 0 mm 1 mps 678 mmHg 45%
    05:00 +21°C° 0 mm 1 mps 678 mmHg 47%
    06:00 +22°C° 0 mm 1 mps 679 mmHg 49%
    07:00 +23°C° 0 mm 1 mps 679 mmHg 51%
    08:00 +25°C° 0 mm 2 mps 680 mmHg 49%
    09:00 +27°C° 0 mm 2 mps 681 mmHg 46%
    10:00 +29°C° 0 mm 3 mps 681 mmHg 43%
    11:00 +30°C° 0 mm 3 mps 681 mmHg 43%
    12:00 +30°C° 0 mm 3 mps 680 mmHg 42%
    13:00 +31°C° 0 mm 3 mps 679 mmHg 42%
    14:00 +30°C° 0 mm 2 mps 678 mmHg 44%
    15:00 +30°C° 0 mm 2 mps 678 mmHg 45%
    16:00 +29°C° 0 mm 2 mps 677 mmHg 47%
    17:00 +27°C° 0 mm 2 mps 677 mmHg 54%
    18:00 +25°C° 0 mm 1 mps 677 mmHg 61%
    19:00 +23°C° 0 mm 1 mps 677 mmHg 68%
    20:00 +23°C° 0 mm 1 mps 677 mmHg 67%
    21:00 +22°C° 0 mm 1 mps 678 mmHg 66%
    22:00 +22°C° 0 mm 1 mps 678 mmHg 65%
    23:00 +22°C° 0 mm 1 mps 678 mmHg 65%

    21 December, Thursday

    Time Temperature Precipitation Wind Pressure Humidity
    00:00 +22°C° 0 mm 1 mps 678 mmHg 65%
    01:00 +21°C° 0 mm 1 mps 677 mmHg 66%
    02:00 +21°C° 0 mm 1 mps 677 mmHg 66%
    03:00 +21°C° 0 mm 1 mps 677 mmHg 66%
    04:00 +21°C° 0 mm 1 mps 677 mmHg 66%
    05:00 +21°C° 0 mm 1 mps 678 mmHg 64%
    06:00 +22°C° 0 mm 1 mps 678 mmHg 62%
    07:00 +23°C° 0 mm 1 mps 679 mmHg 60%
    08:00 +25°C° 0 mm 1 mps 680 mmHg 55%
    09:00 +27°C° 0 mm 2 mps 680 mmHg 50%
    10:00 +29°C° 0 mm 2 mps 681 mmHg 45%
    11:00 +30°C° 0 mm 2 mps 680 mmHg 43%
    12:00 +30°C° 0 mm 2 mps 680 mmHg 41%
    13:00 +31°C° 0 mm 2 mps 679 mmHg 38%
    14:00 +30°C° 0 mm 2 mps 678 mmHg 39%
    15:00 +30°C° 0 mm 2 mps 678 mmHg 41%
    16:00 +29°C° 0 mm 2 mps 677 mmHg 42%
    17:00 +27°C° 0 mm 2 mps 677 mmHg 48%
    18:00 +25°C° 0 mm 2 mps 677 mmHg 54%
    19:00 +23°C° 0 mm 1 mps 677 mmHg 60%
    20:00 +22°C° 0.1 mm 1 mps 678 mmHg 60%
    21:00 +22°C° 0.1 mm 1 mps 678 mmHg 59%
    22:00 +22°C° 0.1 mm 1 mps 678 mmHg 59%
    23:00 +21°C° 0 mm 1 mps 678 mmHg 60%

    22 December, Friday

    Time Temperature Precipitation Wind Pressure Humidity
    00:00 +21°C° 0 mm 1 mps 678 mmHg 60%
    01:00 +21°C° 0 mm 1 mps 678 mmHg 60%
    02:00 +21°C° 0 mm 1 mps 678 mmHg 58%
    03:00 +21°C° 0 mm 1 mps 678 mmHg 55%
    04:00 +20°C° 0 mm 1 mps 678 mmHg 53%
    05:00 +21°C° 0 mm 1 mps 678 mmHg 53%
    06:00 +22°C° 0 mm 1 mps 679 mmHg 53%
    07:00 +23°C° 0 mm 1 mps 680 mmHg 53%
    08:00 +25°C° 0 mm 2 mps 680 mmHg 50%
    09:00 +27°C° 0 mm 2 mps 681 mmHg 47%
    10:00 +29°C° 0 mm 2 mps 681 mmHg 44%
    11:00 +29°C° 0 mm 2 mps 681 mmHg 43%
    12:00 +30°C° 0 mm 2 mps 680 mmHg 42%
    13:00 +31°C° 0 mm 2 mps 679 mmHg 41%
    14:00 +30°C° 0 mm 2 mps 679 mmHg 43%
    15:00 +29°C° 0 mm 2 mps 678 mmHg 45%
    16:00 +29°C° 0 mm 2 mps 678 mmHg 47%
    17:00 +27°C° 0 mm 2 mps 678 mmHg 53%
    18:00 +25°C° 0 mm 1 mps 678 mmHg 60%
    19:00 +23°C° 0 mm 1 mps 678 mmHg 66%
    20:00 +23°C° 0 mm 1 mps 678 mmHg 65%
    21:00 +22°C° 0 mm 1 mps 678 mmHg 65%
    22:00 +22°C° 0 mm 1 mps 679 mmHg 64%
    23:00 +22°C° 0 mm 1 mps 678 mmHg 65%

    23 December, Saturday

    Time Temperature Precipitation Wind Pressure Humidity
    00:00 +22°C° 0 mm 1 mps 678 mmHg 67%
    01:00 +21°C° 0 mm 1 mps 678 mmHg 68%
    02:00 +21°C° 0 mm 1 mps 678 mmHg 68%
    03:00 +21°C° 0 mm 1 mps 678 mmHg 69%
    04:00 +21°C° 0 mm 1 mps 678 mmHg 69%
    05:00 +21°C° 0 mm 1 mps 678 mmHg 67%
    06:00 +22°C° 0 mm 1 mps 679 mmHg 64%
    07:00 +22°C° 0 mm 1 mps 680 mmHg 62%
    08:00 +24°C° 0 mm 1 mps 680 mmHg 56%
    09:00 +26°C° 0 mm 2 mps 681 mmHg 50%
    10:00 +29°C° 0 mm 2 mps 681 mmHg 45%
    11:00 +29°C° 0 mm 2 mps 680 mmHg 44%
    12:00 +30°C° 0 mm 2 mps 680 mmHg 43%
    13:00 +30°C° 0 mm 2 mps 679 mmHg 43%
    14:00 +30°C° 0 mm 2 mps 678 mmHg 45%
    15:00 +29°C° 0 mm 2 mps 678 mmHg 47%
    16:00 +29°C° 0 mm 2 mps 677 mmHg 49%
    17:00 +27°C° 0 mm 2 mps 677 mmHg 56%
    18:00 +25°C° 0 mm 1 mps 677 mmHg 62%
    19:00 +23°C° 0 mm 1 mps 677 mmHg 69%
    20:00 +22°C° 0 mm 1 mps 678 mmHg 70%
    21:00 +22°C° 0 mm 1 mps 678 mmHg 70%
    22:00 +22°C° 0 mm 1 mps 678 mmHg 70%
    23:00 +22°C° 0 mm 1 mps 678 mmHg 70%
    Show more